Regional Weather Roundup
Issued by NWS

Home | Current Version | Previous Version | Graphics & Text | Print | Product List | Glossary On
Versions: 1 2 3 4 5 6 7 8 9 10 11 12 13 14 15 16 17 18 19 20 21 22 23 24 25 26 27
000
ASUS45 KSLC 041710
RWRUT

UTAH REGIONAL WEATHER ROUNDUP
NATIONAL WEATHER SERVICE SALT LAKE CITY UT
1000 AM MST SUN DEC 04 2016

UTZ001>011-023>025-041800-

NORTHERN UTAH

CITY           SKY/WX    TMP DP  RH WIND       PRES   REMARKS
BRIGHAM CITY     N/A     34  20  57 W5        30.16S WCI  30
HILL AFB       PTSUNNY   29  19  65 SE8       30.13F WCI  21
LOGAN          CLOUDY   N/A N/A N/A N7        30.12S
OGDEN          PTSUNNY   29  20  69 S10       30.13F WCI  20
SALT LAKE CITY PTSUNNY   34  20  56 SE16      30.14F WCI  24
TOOELE VALLEY  PTSUNNY   32  23  69 S10       30.15R WCI  24
WENDOVER       PTSUNNY   27  16  63 E7        30.15R WCI  19
HEBER CITY     SUNNY     19  18  93 CALM      30.17F FOG
WEST JORDAN    MOSUNNY   31  25  76 S14       30.14F WCI  21

$$

UTZ011>015-024>027-041800-

CENTRAL/NORTHEAST UTAH

CITY           SKY/WX    TMP DP  RH WIND       PRES   REMARKS
PROVO AIRPORT  SUNNY     29  20  69 SE7       30.20F WCI  22
MOAB/CANYONLAN SUNNY     33  17  51 SE6       30.24S WCI  28
DELTA          MOSUNNY   28  21  74 SE3       30.19F
PRICE          SUNNY     27  15  61 CALM      30.19F
ROOSEVELT      SUNNY     27  16  63 CALM      30.24S
VERNAL         SUNNY     27  15  61 CALM      30.20F

$$

UTZ013>016-019>022-027-041800-

SOUTHERN UTAH

CITY           SKY/WX    TMP DP  RH WIND       PRES   REMARKS
BRYCE CANYON   SUNNY     29   7  39 NE3       30.20
CEDAR CITY     SUNNY     29  17  61 CALM      30.20R
MILFORD        SUNNY     27  16  63 S12       30.19F WCI  17
ST GEORGE      SUNNY     36  16  44 W3        30.28R
HANKSVILLE     SUNNY     28  16  59 CALM      30.28R
BLANDING       SUNNY     33  14  44 SE5       30.28S WCI  29

$$

REGIONAL REPORTS     COLORADO/ARIZONA

CITY           SKY/WX    TMP DP  RH WIND       PRES   REMARKS
CRAIG, CO      SUNNY     24  11  57 E12       30.16F WCI  13
GRAND JUNCTION SUNNY     32  17  54 E9        30.25S WCI  24
RIFLE, CO      SUNNY     23  14  68 CALM      30.25F
MONTROSE, CO   SUNNY     25  12  58 SW3       30.27S
CORTEZ, CO     SUNNY     29  12  49 CALM      30.21S
COLORADO CITY    N/A     37  23  56 SE6       30.23F WCI  33
PAGE, AZ       SUNNY     36  14  40 N3        30.24R
GRAND CANYON   SUNNY     42   6  22 NE3       30.21S
KINGMAN, AZ    SUNNY     47  10  22 NE3       30.18R
FLAGSTAFF, AZ  SUNNY     39  -1  18 NE15      30.19R WCI  31

$$

REGIONAL REPORTS    NEVADA/IDAHO/WYOMING

CITY           SKY/WX    TMP DP  RH WIND       PRES   REMARKS
LAS VEGAS, NV  SUNNY     48  13  24 W3        30.20R
ELY, NY        SUNNY     28  12  51 S9        30.16S WCI  19
ELKO, NV       CLOUDY    26  18  71 W5        30.14S WCI  20
POCATELLO, ID  CLOUDY    35  22  58 S17G24    30.01F WCI  25
BURLEY, ID     CLOUDY    38  20  48 S20       30.00F WCI  28
FORT BRIDGER,  SUNNY     32  12  43 W20G25    30.06S WCI  20
EVANSTON, WY   CLOUDY    25  12  58 SW16      30.06F WCI  12
ROCK SPRINGS,  CLOUDY    27  13  55 SW7       30.03F WCI  19

$$




USA.gov is the U.S. government's official web portal to all federal, state and local government web resources and services.